Flag for Chile Weather past 2 weeks in Santiago, Chile

Now
84 °F

Passing clouds.


Feels Like: 82 °F
Forecast: 52 / 83 °F
Wind: 13 mph from South

Location: Pudahuel

Current Time: Oct 21, 2014 at 2:43:21 PM

Latest Report: Oct 21, 2014 at 2:00 PM


Visibility: N/A

Pressure: 29.95 "Hg

Humidity: 27%

Dew point: 46 °F

Location of SantiagoLocation

Historic Weather in Santiago — Graph

°F

Santiago temperature yesterday

Maximum temperature yesterday: 88 °F (at 5:00 PM)
Minimum temperature yesterday: 48 °F (at 7:00 AM)
Average temperature yesterday: 68 °F

Past Weeks' High & Low Weather Summary

 TemperatureHumidityPressure
High88 °F (Oct 20, 5:00 PM)100% (Oct 8, 8:00 AM)30.15 "Hg (Oct 8, 8:00 AM)
Low37 °F (Oct 10, 7:00 AM)13% (Oct 12, 4:00 PM)29.89 "Hg (Oct 14, 4:00 PM)
Average61 °F51%30.02 "Hg
* Reported Oct 6 1:00 PM — Oct 21 1:00 PM, Santiago, Weather by CustomWeather, © 2014

Note: Actual official high and low records may vary slightly from our data, if they occured in-between our weather recording intervals... More about our weather records

Advertising

Santiago weather history for previous 24 hours

 ConditionsComfort  
Time TempWeatherWind HumidityBarometerVisibility
1:00 PM
Oct 21
82 °FPassing clouds.8 mph25%29.95 "HgN/A
12:00 PM79 °FSunny.5 mph28%29.95 "Hg10 mi
11:00 AM75 °FSunny.2 mph34%29.95 "Hg10 mi
10:00 AM70 °FPassing clouds.5 mph46%29.95 "HgN/A
9:00 AM63 °FSunny.1 mph49%29.95 "Hg10 mi
8:00 AM54 °FSunny.1 mph67%29.92 "Hg5 mi
7:00 AM54 °FSunny.2 mph63%29.92 "Hg5 mi
6:00 AM54 °FClear.1 mph67%29.89 "Hg10 mi
5:00 AM54 °FClear.1 mph67%29.89 "Hg10 mi
4:00 AM55 °FClear.6 mph63%29.89 "Hg10 mi
3:00 AM59 °FClear.2 mph51%29.92 "Hg10 mi
2:00 AM59 °FClear.No wind51%29.95 "Hg10 mi
1:00 AM61 °FClear.2 mph48%29.95 "Hg10 mi
12:00 AM68 °FClear.1 mph40%29.95 "Hg10 mi
11:00 PM
Oct 20
72 °FClear.8 mph36%29.95 "Hg10 mi
10:00 PM72 °FPassing clouds.5 mph36%29.92 "HgN/A
9:00 PM75 °FClear.7 mph27%29.92 "Hg10 mi
8:00 PM79 °FClear.12 mph26%29.92 "Hg10 mi
7:00 PM84 °FSunny.13 mph22%29.92 "Hg10 mi
6:00 PM86 °FSunny.13 mph20%29.92 "Hg10 mi
5:00 PM88 °FPassing clouds.13 mph18%29.92 "HgN/A
4:00 PM86 °FPassing clouds.13 mph19%29.95 "HgN/A
3:00 PM84 °FPassing clouds.12 mph19%29.95 "HgN/A
2:00 PM81 °FPassing clouds.8 mph24%29.98 "HgN/A
Weather by CustomWeather, © 2014

See weather overviewHow to use our weather pages